Other Public Products
Issued by NWS Charleston, SC

Current Version | Previous Version | Graphics & Text | Print | Product List | Glossary On
Versions: 1 2 3 4 5 6 7 8 9 10 11 12 13 14 15 16 17 18 19 20 21 22 23 24 25 26 27 28 29 30 31 32 33 34 35 36 37 38 39 40 41 42 43 44 45 46 47 48 49 50
767 FPUS82 KCHS 200227 OPUCHS TEST...KCHS/KSAV Gateway Observations...TEST National Weather Service Charleston SC 1000 PM EDT THU APR 19 2018 NOTE: "fair" indicates few or no clouds below 12,000 feet with no significant weather and/or obstructions to visibility. SCZ050-WAZ558-NCZ071-TXZ119-213-PAZ071-DCZ001-FLZ074-172-MI076- NYZ176-178-MAZ016-IL014-TNZ027-NJZ106-GAZ044-MD014-200300- ...Gateway Observations for Charleston International... CITY SKY/WX TMP DP RH WIND PRES REMARKS Chas Airport FAIR 70 39 32 NW8 30.03R Seattle MOCLDY 59 36 42 W6 30.23F Charlotte FAIR 51 29 42 N14G22 30.18R Dallas DFW CLEAR 58 35 42 N8 30.24S Dallas Love PTCLDY 62 36 37 NE6 30.26R Philladelphia FAIR 42 23 46 W14G23 30.08R Wash National FAIR 46 25 43 NW15 30.16R Baltimore FAIR 42 26 53 W8G18 30.13R Miami MOCLDY 76 65 68 S8 30.10R Detroit FAIR 39 28 64 SE5 30.31R WCI 36 Newark FAIR 41 23 48 W12G20 30.00R Laguardia FAIR 42 25 50 NW22G37 29.98R J F K FAIR 41 23 48 NW22 29.99R Boston Logan CLOUDY 42 34 73 NW14 29.80R Ft. Lauderdale MOCLDY 76 65 68 S9 30.08R Chicago O`Hare FAIR 42 26 53 NW9 30.42R Chicago Midway FAIR 46 25 43 N6 30.43R Houston Bush FAIR 67 44 43 N8 30.21R Houston Hobby FAIR 68 42 38 NE9 30.19R Nashville FAIR 46 32 58 N7 30.36R Atlanta FAIR 53 34 48 NW13 30.17R $$ GAZ044-118-TXZ119-213-NCZ071-DCZ001-MDZ014-506-PAZ021-071-NJZ106- NYZ176-178-MAZ106-OHZ011-021-055-MIZ076-KYZ091-ILZ014-INZ047- MNZ060-ONZ431-200300- ...Gateway Observations for Savannah International... CITY SKY/WX TMP DP RH WIND PRES REMARKS Savannah Arpt FAIR 71 44 37 N9 30.04R Atlanta FAIR 53 34 48 NW13 30.17R Charlotte FAIR 51 29 42 N14G22 30.18R Dallas DFW CLEAR 58 35 42 N8 30.24S Houston Bush FAIR 67 44 43 N8 30.21R Wash National FAIR 46 25 43 NW15 30.16R Wash Dulles MOCLDY 42 27 55 NW7 30.15R Baltimore FAIR 42 26 53 W8G18 30.13R Philadelphia FAIR 42 23 46 W14G23 30.08R Newark FAIR 41 23 48 W12G20 30.00R Laguardia FAIR 42 25 50 NW22G37 29.98R J F K FAIR 41 23 48 NW22 29.99R Boston CLOUDY 42 34 73 NW14 29.80R Pittsburg FAIR 38 27 64 NW12 30.21R WCI 30 Akron FAIR 37 26 64 N10 30.25R WCI 30 Cleveland FAIR 36 29 75 N10 30.31R WCI 28 Cincinnati FAIR 45 28 51 NW8 30.30R Columbus FAIR 43 29 57 W5 30.27R Detroit FAIR 39 28 64 SE5 30.31R WCI 36 Chicago O`Hare FAIR 42 26 53 NW9 30.42R Minneapolis FAIR 45 24 43 W6 30.45S Indianapolis FAIR 45 17 32 N14 30.37R Toronto Canada PTCLDY 36 19 51 NW12 30.17R WCI 27 $$

USA.gov is the U.S. government's official web portal to all federal, state and local government web resources and services.